DIVISION OF AGRICULTURAL PHYSICS
INDIAN AGRICULTURAL RESEARCH INSTITUTE
NEW DELHI, INDIA-110012
Phone No. 011-25843014

(IARI: Latitude: 280 38'23"N, Longitude:770 09'27"E., Altitude: 228.61m above msl.)
Duration of data : Last 60 days
Date Max.
Temp.
(oC)
Min.
Temp.
(oC)
Rainfall
(mm)
Wind
Speed
(Kmph)
Wind
Direction-I
Wind
Direction-II
Weather
condition-I
(Code 0-9)
Weather
condition-II
(Code 0-9)
RH-I
(%)
RH-II
(%)
BSS
(hrs)
Evaporation
(mm)
2018-02-21 27.5 9.0 0.00 2.6 C NW 4 0 83.0 31.0 7.5 4.0
2018-02-22 30.0 9.8 0.00 1.9 C NW 4 0 86.0 39.0 7.7 4.5
2018-02-23 30.5 12.0 0.00 1.9 C NW 4 0 93.0 40.0 6.0 3.5
2018-02-24 30.0 14.0 0.00 2.0 C NNE 4 1 89.0 56.0 2.4 3.5
2018-02-25 30.0 16.0 0.00 3.3 C W 1 0 92.0 45.0 4.7 4.5
2018-02-26 28.0 13.4 0.00 7.0 W NW 4 0 87.0 46.0 8.1 4.4
2018-02-27 27.0 12.8 0.00 8.3 NW NNW 4 0 88.0 45.0 9.7 3.5
2018-02-28 28.5 12.0 0.00 4.2 C NW 4 2 96.0 69.0 8.7 4.6
2018-03-01 29.0 10.5 0.00 2.7 C NW 4 0 84.0 37.0 4.3 4.0
2018-03-02 28.8 12.4 0.00 2.5 C NW 4 0 89.0 49.0 2.9 4.2
2018-03-03 30.5 13.2 0.00 3.1 C W 4 0 96.0 32.0 8.5 4.5
2018-03-04 31.5 15.5 0.00 3.4 C NW 0 0 82.0 46.0 4.7 4.6
2018-03-05 28.8 10.5 0.00 3.5 C NW 4 0 95.0 32.0 6.0 4.0
2018-03-06 27.8 11.6 0.00 5.4 C W 4 0 91.0 33.0 9.3 4.8
2018-03-07 27.5 13.0 0.00 6.9 W W 4 0 89.0 30.0 8.5 4.0
2018-03-08 28.8 10.0 0.00 4.6 C C 4 0 93.0 37.0 9.3 4.0
2018-03-09 31.0 10.8 0.00 2.3 NW NW 4 0 88.0 39.0 7.8 4.5
2018-03-10 30.9 10.6 0.00 4.0 N NW 0 0 88.0 34.0 8.0 5.0
2018-03-11 31.2 14.4 0.00 6.3 C W 0 0 94.0 39.0 8.2 5.5
2018-03-12 31.0 12.4 0.00 3.6 C W 0 0 93.0 31.0 7.0 5.7
2018-03-13 32.8 12.8 0.00 4.5 C NW 4 0 88.0 23.0 6.8 4.4
2018-03-14 35.0 14.0 0.00 3.7 C NW 0 0 84.0 27.0 9.7 4.5
2018-03-15 32.8 14.6 0.00 2.9 C NW 0 0 79.0 35.0 6.7 5.8
2018-03-16 30.5 12.8 0.00 5.2 C NW 4 0 90.0 28.0 6.0 4.0
2018-03-17 31.0 13.0 0.00 5.4 C N 0 0 89.0 33.0 7.9 4.4
2018-03-18 30.0 10.0 0.00 5.2 W NW 0 0 70.0 33.0 9.8 5.0
2018-03-19 31.2 11.5 0.00 4.9 C W 0 1 73.0 17.0 9.5 5.6
2018-03-20 33.6 11.8 0.00 4.2 C W 0 0 89.0 18.0 8.7 5.0
2018-03-21 32.2 17.4 0.00 2.8 C NW 2 2 74.0 37.0 8.3 5.9
2018-03-22 32.2 15.5 0.00 6.8 C N 1 0 81.0 36.0 7.5 4.8
2018-03-23 30.4 16.5 0.00 6.2 W W 0 0 77.0 38.0 7.1 5.0
2018-03-24 29.2 15.7 0.00 4.5 W N 0 0 88.0 33.0 9.2 5.8
2018-03-25 31.8 15.7 0.00 6.3 C NW 4 0 81.0 26.0 6.0 10.0
2018-03-26 32.2 16.6 0.00 6.6 W N 0 0 69.0 27.0 9.0 6.0
2018-03-27 33.2 12.8 0.00 5.6 C N 0 0 77.0 27.0 9.0 5.5
2018-03-28 36.8 12.6 0.00 3.9 C SW 0 0 84.0 16.0 9.4 6.1
2018-03-29 38.0 14.6 0.00 5.7 C W 0 0 64.0 22.0 9.6 6.2
2018-03-30 35.6 16.8 0.00 5.6 SW W 0 0 64.0 22.0 9.5 6.0
2018-03-31 35.5 16.5 0.00 6.8 SE NW 1 0 70.0 34.0 10.0 6.0
2018-04-01 32.2 18.4 0.00 5.6 C SE 0 0 70.0 37.0 8.6 5.8
2018-04-02 33.2 17.6 0.00 4.4 SE S 0 0 59.0 28.0 9.5 6.0
2018-04-03 35.4 18.4 0.00 3.6 SE E 1 0 61.0 31.0 8.6 6.0
2018-04-04 36.6 19.4 0.00 1.9 C W 0 0 65.0 26.0 7.6 6.2
2018-04-05 38.2 19.2 0.00 4.9 C NW 4 0 75.0 24.0 7.8 7.0
2018-04-06 37.2 19.8 0.00 3.9 C SE 1 1 70.0 27.0 7.3 6.5
2018-04-07 36.0 17.0 7.80 6.3 SE S 0 0 67.0 37.0 3.9 5.8
2018-04-08 33.4 21.2 0.00 5.6 E SE 1 0 63.0 36.0 9.3 5.5
2018-04-09 34.2 20.0 2.60 8.1 NW E 1 1 84.0 54.0 8.6 5.5
2018-04-10 29.8 18.9 0.00 5.2 S SE 1 0 74.0 36.0 3.7 5.1
2018-04-11 34.4 21.2 0.00 5.0 C NE 1 1 63.0 48.0 6.6 5.2
2018-04-12 33.0 17.6 8.60 3.8 NW W 4 0 74.0 39.0 5.5 4.5
2018-04-13 33.2 14.8 0.00 3.5 C NW 0 0 82.0 16.0 4.3 3.9
2018-04-14 35.2 14.9 0.00 3.6 C NW 0 0 48.0 16.0 9.9 6.2
2018-04-15 37.2 17.2 0.00 4.5 C W 0 0 58.0 20.0 8.7 6.5
2018-04-16 38.5 20.4 0.00 2.9 C E 2 2 58.0 23.0 8.5 7.0
2018-04-17 38.2 20.2 0.00 5.0 NE NW 2 0 61.0 18.0 4.0 6.2
2018-04-18 38.8 21.4 0.00 5.8 W NW 0 0 60.0 18.0 8.5 6.4
2018-04-19 38.0 20.4 0.00 7.4 W NW 2 0 55.0 17.0 9.2 6.6
2018-04-20 39.4 25.2 0.00 5.5 S SW 1 1 60.0 25.0 7.4 6.0
2018-04-21 39.5 21.5 0.00 10.6 W 2 0 58.0 0.0 5.8 6.2

Abbrevations used:
I - Observations taken at 7.21 hrs. and II - Observations taken at 14:21 hrs.
Codes:
0 - Fair (clear and slightly clouded), 1 - Variable Sky, 2 - Mainly Overcast, 3 - Sand Storm or Dust Storm,4 - Fog or Thick Dust Haze, 5 - Drizzle, 6 - Rain,7 - Snow or Sleet, 8 - Shower (s), 9 - Thunder Storm with or without Precipitation